Weather History for Luverne, MN

Change the Weather History Date:

Friday, February 8, 2013

  Actual Average (KFSD) Record (KFSD)
Temperature  
Mean Temperature 26 °F 19 °F  
Max Temperature 32 °F 29 °F 58 °F (1991)
Min Temperature 21 °F 10 °F -38 °F (1899)
Degree Days  
Heating Degree Days 38 46  
Month to date heating degree days 372  
Since 1 July heating degree days 5004  
Cooling Degree Days 0 0  
Month to date cooling degree days 0  
Year to date cooling degree days 0  
Moisture  
Dew Point 21 °F    
Average Humidity 84    
Maximum Humidity 93    
Minimum Humidity 69    
Precipitation  
Precipitation 0.00 in 0.01 in 0.79 in (1966)
Month to date precipitation 0.14  
Year to date precipitation 0.70  
Snow  
Snow 0.00 in 0.30 in 6.00 in (1909)
Month to date snowfall 2.0  
Since 1 July snowfall 26.6  
Snow Depth -    
Sea Level Pressure  
Sea Level Pressure 30.21 in    
Wind  
Wind Speed 8 mph (SE)    
Max Wind Speed 17 mph    
Max Gust Speed 23 mph    
Visibility 10 miles    
Events      
T = Trace of Precipitation, MM = Missing Value Source: NWS Daily Summary

Daily Weather History Graph

Daily Weather History Graph

Search for Another Location

Airport:

Trip Planner

Search our weather history database for the weather conditions in past years. The results will help you decide how hot, cold, wet, or windy it might be!

Date:

Astronomy

Feb. 08, 2013 Rise Set
Actual Time 7:32 AM CST 5:46 PM CST
Civil Twilight 7:02 AM CST 6:16 PM CST
Nautical Twilight 6:28 AM CST 6:49 PM CST
Astronomical Twilight 5:55 AM CST 7:23 PM CST
Moon 6:03 AM CST (2/8) 4:19 PM CST (2/8)
Length of Visible Light 11h 13m
Length of Day
10h 13m
Waning Crescent, 3% of the Moon is Illuminated
Feb 8
Waning Crescent
Feb 10
New
Feb 17
First Quarter
Feb 25
Full
Mar 4
Last Quarter

Hourly Weather History & Observations

Time (CST) Temp. Windchill Dew Point Humidity Pressure Visibility Wind Dir Wind Speed Gust Speed Precip Events Conditions
12:16 AM 23.0 °F 15.8 °F 21.2 °F 93% 30.27 in 10.0 mi NNE 5.8 mph - N/A   Overcast
12:36 AM 23.0 °F 18.4 °F 21.2 °F 93% 30.26 in 10.0 mi NE 3.5 mph - N/A   Overcast
12:56 AM 23.0 °F 17.0 °F 21.2 °F 93% 30.26 in 10.0 mi NE 4.6 mph - N/A   Overcast
1:16 AM 23.0 °F 14.7 °F 21.2 °F 93% 30.26 in 10.0 mi ENE 6.9 mph - N/A   Overcast
1:36 AM 23.0 °F 14.7 °F 19.4 °F 86% 30.26 in 10.0 mi NE 6.9 mph - N/A   Overcast
2:16 AM 23.0 °F 15.8 °F 19.4 °F 86% 30.27 in 10.0 mi NE 5.8 mph - N/A   Overcast
2:36 AM 23.0 °F - 19.4 °F 86% 30.28 in 10.0 mi Calm Calm - N/A   Overcast
2:56 AM 23.0 °F 17.0 °F 19.4 °F 86% 30.29 in 10.0 mi East 4.6 mph - N/A   Overcast
3:16 AM 23.0 °F 15.8 °F 19.4 °F 86% 30.28 in 10.0 mi East 5.8 mph - N/A   Overcast
3:36 AM 23.0 °F 15.8 °F 19.4 °F 86% 30.27 in 10.0 mi ESE 5.8 mph - N/A   Overcast
3:56 AM 23.0 °F 18.4 °F 19.4 °F 86% 30.27 in 10.0 mi East 3.5 mph - N/A   Overcast
4:17 AM 23.0 °F - 19.4 °F 86% 30.27 in 10.0 mi Calm Calm - N/A   Overcast
4:36 AM 23.0 °F 17.0 °F 19.4 °F 86% 30.27 in 10.0 mi SE 4.6 mph - N/A   Overcast
4:56 AM 21.2 °F 13.6 °F 19.4 °F 93% 30.26 in 10.0 mi East 5.8 mph - N/A   Overcast
5:17 AM 23.0 °F 18.4 °F 19.4 °F 86% 30.27 in 10.0 mi ESE 3.5 mph - N/A   Overcast
5:36 AM 21.2 °F 16.4 °F 19.4 °F 93% 30.28 in 10.0 mi South 3.5 mph - N/A   Overcast
6:17 AM 21.2 °F 13.6 °F 17.6 °F 86% 30.28 in 10.0 mi ESE 5.8 mph - N/A   Overcast
6:36 AM 21.2 °F 12.6 °F 17.6 °F 86% 30.27 in 10.0 mi SE 6.9 mph - N/A   Overcast
6:56 AM 21.2 °F 12.6 °F 19.4 °F 93% 30.28 in 10.0 mi SSE 6.9 mph - N/A   Overcast
7:17 AM 21.2 °F 12.6 °F 19.4 °F 93% 30.27 in 10.0 mi ESE 6.9 mph - N/A   Overcast
7:36 AM 21.2 °F 13.6 °F 19.4 °F 93% 30.29 in 10.0 mi SSE 5.8 mph - N/A   Overcast
7:56 AM 21.2 °F 12.6 °F 19.4 °F 93% 30.28 in 10.0 mi SE 6.9 mph - N/A   Overcast
8:17 AM 21.2 °F 10.1 °F 19.4 °F 93% 30.29 in 10.0 mi SE 10.4 mph - N/A   Overcast
8:36 AM 21.2 °F 10.9 °F 17.6 °F 86% 30.29 in 10.0 mi SSE 9.2 mph - N/A   Overcast
8:56 AM 21.2 °F 10.1 °F 17.6 °F 86% 30.29 in 10.0 mi South 10.4 mph - N/A   Overcast
9:17 AM 21.2 °F 11.7 °F 17.6 °F 86% 30.29 in 10.0 mi SE 8.1 mph - N/A   Overcast
9:36 AM 23.0 °F 12.4 °F 19.4 °F 86% 30.29 in 10.0 mi SE 10.4 mph - N/A   Overcast
9:56 AM 23.0 °F 13.9 °F 19.4 °F 86% 30.29 in 10.0 mi SSE 8.1 mph - N/A   Overcast
10:16 AM 23.0 °F 13.9 °F 19.4 °F 86% 30.29 in 10.0 mi SSE 8.1 mph - N/A   Overcast
11:01 AM 23.0 °F 13.1 °F 19.4 °F 86% 30.28 in 10.0 mi SSE 9.2 mph - N/A   Overcast
11:16 AM 23.0 °F 12.4 °F 19.4 °F 86% 30.29 in 10.0 mi SSE 10.4 mph - N/A   Overcast
11:36 AM 24.8 °F 15.3 °F 19.4 °F 80% 30.29 in 10.0 mi SSE 9.2 mph - N/A   Overcast
11:56 AM 26.6 °F 15.2 °F 21.2 °F 80% 30.28 in 10.0 mi South 13.8 mph 18.4 mph N/A   Overcast
12:16 PM 24.8 °F 13.4 °F 21.2 °F 86% 30.27 in 10.0 mi South 12.7 mph - N/A   Overcast
12:36 PM 24.8 °F 12.9 °F 21.2 °F 86% 30.26 in 10.0 mi South 13.8 mph - N/A   Overcast
12:56 PM 24.8 °F 13.4 °F 21.2 °F 86% 30.25 in 7.0 mi SSE 12.7 mph - N/A   Overcast
1:16 PM 24.8 °F 13.4 °F 21.2 °F 86% 30.24 in 7.0 mi SSE 12.7 mph - N/A   Overcast
1:36 PM 26.6 °F 14.3 °F 21.2 °F 80% 30.22 in 10.0 mi South 16.1 mph 19.6 mph N/A   Overcast
1:56 PM 26.6 °F 15.7 °F 23.0 °F 86% 30.21 in 7.0 mi SSE 12.7 mph - N/A   Overcast
2:17 PM 26.6 °F 15.2 °F 23.0 °F 86% 30.20 in 10.0 mi SSE 13.8 mph - N/A   Overcast
2:36 PM 28.4 °F 16.2 °F 23.0 °F 80% 30.19 in 10.0 mi South 17.3 mph 20.7 mph N/A   Overcast
2:56 PM 28.4 °F 17.0 °F 23.0 °F 80% 30.18 in 10.0 mi SSE 15.0 mph 20.7 mph N/A   Overcast
3:17 PM 30.2 °F 19.8 °F 23.0 °F 75% 30.16 in 10.0 mi SSE 13.8 mph - N/A   Scattered Clouds
3:36 PM 30.2 °F 19.3 °F 23.0 °F 75% 30.16 in 10.0 mi SSE 15.0 mph 18.4 mph N/A   Scattered Clouds
3:56 PM 32.0 °F 21.2 °F 23.0 °F 69% 30.15 in 10.0 mi SSE 16.1 mph 21.9 mph N/A   Clear
4:16 PM 32.0 °F 22.5 °F 24.8 °F 75% 30.14 in 10.0 mi SSE 12.7 mph 20.7 mph N/A   Clear
4:36 PM 32.0 °F 22.1 °F 24.8 °F 75% 30.13 in 10.0 mi SSE 13.8 mph - N/A   Clear
4:57 PM 32.0 °F 22.1 °F 24.8 °F 75% 30.12 in 10.0 mi SSE 13.8 mph - N/A   Clear
5:16 PM 32.0 °F 23.0 °F 24.8 °F 75% 30.12 in 10.0 mi SSE 11.5 mph - N/A   Clear
5:36 PM 32.0 °F 22.5 °F 24.8 °F 75% 30.12 in 10.0 mi SSE 12.7 mph 18.4 mph N/A   Clear
5:56 PM 32.0 °F 23.0 °F 23.0 °F 69% 30.11 in 10.0 mi SE 11.5 mph 18.4 mph N/A   Clear
6:16 PM 32.0 °F 22.5 °F 23.0 °F 69% 30.11 in 10.0 mi SSE 12.7 mph - N/A   Clear
6:36 PM 30.2 °F 20.2 °F 23.0 °F 75% 30.11 in 10.0 mi SSE 12.7 mph - N/A   Clear
6:56 PM 30.2 °F 18.9 °F 23.0 °F 75% 30.10 in 10.0 mi SSE 16.1 mph 20.7 mph N/A   Clear
7:16 PM 30.2 °F 18.9 °F 23.0 °F 75% 30.09 in 10.0 mi SSE 16.1 mph 21.9 mph N/A   Clear
7:36 PM 28.4 °F 16.6 °F 23.0 °F 80% 30.09 in 10.0 mi SSE 16.1 mph 21.9 mph N/A   Clear
7:56 PM 28.4 °F 18.0 °F 23.0 °F 80% 30.10 in 10.0 mi SSE 12.7 mph 18.4 mph N/A   Clear
8:16 PM 28.4 °F 17.5 °F 23.0 °F 80% 30.10 in 10.0 mi SSE 13.8 mph 21.9 mph N/A   Clear
8:36 PM 28.4 °F 18.5 °F 23.0 °F 80% 30.10 in 10.0 mi SSE 11.5 mph - N/A   Clear
8:57 PM 26.6 °F 14.7 °F 23.0 °F 86% 30.10 in 10.0 mi SSE 15.0 mph 21.9 mph N/A   Clear
9:16 PM 26.6 °F 16.2 °F 23.0 °F 86% 30.10 in 10.0 mi SSE 11.5 mph 17.3 mph N/A   Clear
9:36 PM 26.6 °F 14.7 °F 23.0 °F 86% 30.10 in 10.0 mi SSE 15.0 mph 23.0 mph N/A   Clear
9:57 PM 26.6 °F 15.7 °F 23.0 °F 86% 30.11 in 10.0 mi SSE 12.7 mph - N/A   Scattered Clouds
10:16 PM 26.6 °F 14.3 °F 23.0 °F 86% 30.10 in 7.0 mi SSE 16.1 mph 20.7 mph N/A   Mostly Cloudy
10:36 PM 26.6 °F 15.2 °F 23.0 °F 86% 30.10 in 7.0 mi SSE 13.8 mph 23.0 mph N/A   Mostly Cloudy
10:57 PM 26.6 °F 15.2 °F 23.0 °F 86% 30.10 in 7.0 mi South 13.8 mph - N/A   Overcast
11:16 PM 26.6 °F 14.7 °F 23.0 °F 86% 30.10 in 7.0 mi SSE 15.0 mph 21.9 mph N/A   Overcast
11:36 PM 26.6 °F 16.8 °F 23.0 °F 86% 30.10 in 7.0 mi SSE 10.4 mph 18.4 mph N/A   Overcast
11:56 PM 28.4 °F 17.0 °F 24.8 °F 86% 30.08 in 7.0 mi SSE 15.0 mph 20.7 mph N/A   Overcast